Skip Page Navigation
NASA JPL Caltech
NASA Logo - Jet Propulsion Laboratory + View the NASA Portal
+ Near-Earth Object (NEO) Program
Search JPL
JPL Home Earth Solar System Stars & Galaxies Technology
JPL Solar System Dynamics
BODIES ORBITS EPHEMERIDES TOOLS PHYSICAL DATA DISCOVERY FAQ SITE MAP
JPL Small-Body Database Browser
Search: [ help ]  
15849 Billharper (1995 YM10)
Classification: Main-belt Asteroid          SPK-ID: 2015849
Ephemeris | Orbit Diagram | Orbital Elements | Physical Parameters | Discovery Circumstances ]

[ hide orbit diagram ]
Orbit Diagram
Note: Make sure you have Java enabled on your browser to see the applet. This applet is provided as a 3D orbit visualization tool. The applet was implemented using 2-body methods, and hence should not be used for determining accurate long-term trajectories (over several years or decades) or planetary encounter circumstances. For accurate long-term ephemerides, please instead use our Horizons system.
Orbit Viewer

Additional Notes: the orbits shown in the applet are color coded. The planets are white lines, and the asteroid/comet is a blue line. The bright white line indicates the portion of the orbit that is above the ecliptic plane, and the darker portion is below the ecliptic plane. Likewise for the asteroid/comet orbit, the light blue indicates the portion above the ecliptic plane, and the dark blue the portion below the ecliptic plane.

Orbit Viewer applet originally written and kindly provided by Osamu Ajiki (AstroArts), and further modified by Ron Baalke (JPL).


Orbital Elements at Epoch 2456400.5 (2013-Apr-18.0) TDB
Reference: MPO233612 (heliocentric ecliptic J2000)
 Element Value Uncertainty (1-sigma)   Units 
e 0.0732160 n/a  
a 2.9519695 n/a AU
q 2.7358381 n/a AU
i 2.37898 n/a deg
node 162.86016 n/a deg
peri 104.09480 n/a deg
M 2.12443 n/a deg
tp 2456389.5678357
(2013-Apr-07.06783570)
n/a JED
period 1852.5341638
5.07
n/a
n/a
d
yr
n 0.19432840 n/a deg/d
Q 3.1681009 n/a AU
  Orbit Determination Parameters
   # obs. used (total)      560  
   first obs. used      1978-??-??  
   last obs. used      2012-06-23  
   # oppositions      16  
   planetary ephem.      DE403  
   condition code      0  
   fit RMS      0.54  
   data source      MPC:mpn  
   producer      MPCLINUX  

Additional Information
 T_jup = 3.264 

Ephemeris | Orbit Diagram | Orbital Elements | Physical Parameters | Discovery Circumstances ]

Physical Parameter Table
Parameter Symbol Value Units Sigma Reference Notes
absolute magnitude H 14.5 mag n/a PDS3 (MPO 1718)  

15849 Billharper           Discovered 1995 Dec. 18 by Spacewatch at Kitt Peak.
William Leonard Harper (b. 1943) specializes in the philosophy of science. He earned a Ph.D. at the University of Rochester and has been in the department of philosophy at the University of Western Ontario since 1970. The name was suggested by R. Jedicke and P. Jedicke.
NOTE: some special characters may not display properly (any characters within {} are an attempt to place the proper accent above a character)
Reference: 20050523/MPCPages.arcLast Updated: 2005-07-21

Alternate Designations
 1995 YM10 = 1978 RR9 
Ephemeris | Orbit Diagram | Orbital Elements | Physical Parameters | Discovery Circumstances ]
ABOUT SSD CREDITS/AWARDS PRIVACY/COPYRIGHT GLOSSARY LINKS
FirstGov 2013-May-20 08:45 UT
(server date/time)  
NASA Home Page
Site Manager:   Donald K. Yeomans
Webmaster  Alan B. Chamberlin